GW7731 Weather Reports


time (UTC)temp
C
wind
direction
speed
KPH
gust
KPH
rain 1hr
cm
rain 24hr
cm
rain mn
cm
humidity
%
barometer
mb
20260906093016 22 0.0 0.0 0.00 0.79 0.00 98 1016.2
20260906091816 22 0.0 0.0 0.00 0.79 0.00 97 1016.2
20260906090616 22 0.0 0.0 0.00 0.79 0.00 97 1016.2
20260906085416 22 0.0 0.0 0.00 0.79 0.00 97 1016.0
20260906084216 22 0.0 0.0 0.00 0.79 0.00 97 1015.9
20260906083016 22 0.0 0.0 0.00 0.79 0.00 97 1015.7
20260906081816 22 0.0 0.0 0.00 0.79 0.00 97 1015.8
20260906080616 22 0.0 0.0 0.00 0.79 0.00 97 1015.9
20260906075416 22 0.0 0.0 0.00 0.79 0.00 97 1015.7
20260906074216 22 0.0 0.0 0.00 0.79 0.00 97 1015.7
20260906073016 22 0.0 0.0 0.00 0.79 0.00 97 1015.8
20260906071836 22 0.0 0.0 0.00 0.79 0.00 97 1015.9
20260906070616 22 0.0 0.0 0.00 0.79 0.00 97 1015.9
20260906065416 22 0.0 0.0 0.00 0.79 0.00 97 1015.9
20260906064216 23 0.0 0.0 0.00 0.79 0.00 97 1016.0
20260906063036 23 0.0 0.0 0.00 0.79 0.00 97 1016.1
20260906061816 23 0.0 0.0 0.00 0.79 0.00 96 1016.2
20260906060616 23 0.0 0.0 0.00 0.79 0.00 97 1016.3
20260906055416 23 0.0 0.0 0.00 0.79 0.00 96 1016.3
20260906054216 23 0.0 0.0 0.00 0.79 0.00 96 1016.5
20260906053036 23 0.0 0.0 0.00 0.79 0.00 96 1016.5
20260906051815 23 0.0 0.0 0.00 0.79 0.00 96 1016.7
20260906050615 23 0.0 0.0 0.00 0.79 0.00 96 1016.7
20260906045416 23 0.0 0.0 0.00 0.79 0.00 96 1016.7
20260906044215 23 0.0 0.0 0.03 0.79 0.00 96 1016.8
20260906043015 23 0.0 0.0 0.30 0.79 0.00 96 1016.6
20260906041815 23 0.0 0.0 0.79 0.79 0.00 95 1016.5
20260906040635 23 0.0 0.0 0.79 0.79 0.00 95 1016.5
20260906035416 23 48 0.0 3.2 0.79 0.79 0.79 94 1016.5
20260906034236 24 156 1.6 4.8 0.76 0.76 0.76 91 1016.9
20260906033016 25 181 3.2 9.7 0.48 0.48 0.48 87 1017.1
20260906031815 25 0.0 0.0 0.00 0.00 0.00 84 1017.3
20260906030616 25 0.0 0.0 0.00 0.00 0.00 84 1017.2
20260906025416 25 0.0 0.0 0.00 0.00 0.00 84 1017.1
20260906024215 25 0.0 0.0 0.00 0.00 0.00 83 1017.0
20260906023016 26 0.0 0.0 0.00 0.00 0.00 82 1016.8
20260906021816 26 0.0 0.0 0.00 0.00 0.00 81 1016.9
20260906020616 26 0.0 0.0 0.00 0.00 0.00 81 1016.8
20260906015416 26 0.0 0.0 0.00 0.00 0.00 80 1016.7
20260906014256 26 0.0 0.0 0.00 0.00 0.00 80 1016.7
20260906013015 26 0.0 0.0 0.00 0.00 0.00 79 1016.5
20260906011816 27 0.0 0.0 0.00 0.00 0.00 78 1016.4
20260906010615 27 0.0 0.0 0.00 0.00 0.00 77 1016.3
20260906005456 27 0.0 0.0 0.00 0.00 0.00 75 1015.9
20260906004216 27 0.0 0.0 0.00 0.00 0.00 75 1015.9
20260906003015 27 0.0 0.0 0.00 0.00 0.00 75 1015.7
20260906001815 27 0.0 0.0 0.00 0.00 0.00 74 1015.7
20260906000615 28 0.0 0.0 0.00 0.00 0.00 69 1015.8
20260905235415 28 347 0.0 1.6 0.00 0.00 0.00 67 1015.8
20260905234215 28 0.0 1.6 0.00 0.00 0.00 65 1015.7
20260905233035 28 266 3.2 6.4 0.00 0.00 0.00 67 1016.0
20260905231815 30 289 1.6 3.2 0.00 0.00 0.00 63 1015.6
20260905230616 30 64 1.6 4.8 0.00 0.00 0.00 60 1015.7
20260905225415 30 300 0.0 4.8 0.00 0.00 0.00 61 1015.4
20260905224215 30 96 3.2 11.3 0.00 0.00 0.00 59 1015.4
20260905223015 31 82 4.8 14.5 0.00 0.00 0.00 58 1015.3
20260905221815 32 44 8.0 20.9 0.00 0.00 0.00 56 1015.2
20260905220616 34 38 8.0 16.1 0.00 0.00 0.00 52 1015.1
20260905215415 36 21 1.6 6.4 0.00 0.00 0.00 45 1014.5
20260905214215 38 309 1.6 3.2 0.00 0.00 0.00 41 1014.3
20260905213035 38 24 0.0 4.8 0.00 0.00 0.00 42 1014.5
20260905211815 37 225 0.0 3.2 0.00 0.00 0.00 42 1014.7
20260905210636 37 54 0.0 4.8 0.00 0.00 0.00 42 1015.0
20260905205415 37 81 1.6 4.8 0.00 0.00 0.00 42 1015.1
20260905204215 38 136 0.0 3.2 0.00 0.00 0.00 41 1014.9
20260905203015 38 127 0.0 3.2 0.00 0.00 0.00 41 1014.8
20260905201815 38 45 0.0 4.8 0.00 0.00 0.00 41 1015.0
20260905200615 38 223 0.0 3.2 0.00 0.00 0.00 43 1015.1
20260905195415 38 264 1.6 4.8 0.00 0.00 0.00 42 1015.3
20260905194215 37 333 0.0 6.4 0.00 0.00 0.00 42 1015.4
20260905193015 37 221 1.6 3.2 0.00 0.00 0.00 44 1015.6
20260905191815 36 16 3.2 8.0 0.00 0.00 0.00 47 1015.7
20260905190615 37 338 1.6 9.7 0.00 0.00 0.00 47 1015.8
20260905185415 37 159 0.0 4.8 0.00 0.00 0.00 48 1016.1
20260905184215 36 216 0.0 3.2 0.00 0.00 0.00 50 1016.3
20260905183015 36 33 3.2 8.0 0.00 0.00 0.00 51 1016.4
20260905181815 36 8 1.6 6.4 0.00 0.00 0.00 51 1016.5
20260905180615 35 82 1.6 8.0 0.00 0.00 0.00 51 1016.7
20260905175415 36 38 3.2 8.0 0.00 0.00 0.00 52 1016.8
20260905174215 35 229 1.6 6.4 0.00 0.00 0.00 52 1017.0
20260905173015 34 218 3.2 4.8 0.00 0.00 0.00 54 1017.1
20260905171815 34 46 4.8 9.7 0.00 0.00 0.00 54 1017.2
20260905170614 33 46 4.8 8.0 0.00 0.00 0.00 56 1017.3
20260905165416 34 40 6.4 14.5 0.00 0.00 0.00 55 1017.6
20260905164217 34 70 3.2 4.8 0.00 0.00 0.00 55 1017.8
20260905163017 34 222 3.2 6.4 0.00 0.00 0.00 56 1018.1
20260905161837 33 116 3.2 4.8 0.00 0.00 0.00 59 1018.4
20260905160616 33 46 3.2 6.4 0.00 0.00 0.00 59 1018.5
20260905155417 33 42 1.6 6.4 0.00 0.00 0.00 62 1018.7
20260905154216 32 108 0.0 4.8 0.00 0.00 0.00 64 1018.8
20260905153016 32 205 0.0 4.8 0.00 0.00 0.00 65 1018.8
20260905151816 31 211 1.6 4.8 0.00 0.00 0.00 68 1018.8
20260905150616 31 106 1.6 3.2 0.00 0.00 0.00 71 1019.0
20260905145437 30 57 1.6 3.2 0.00 0.00 0.00 74 1019.2
20260905144217 30 59 1.6 4.8 0.00 0.00 0.00 75 1019.4
20260905143016 30 67 1.6 4.8 0.00 0.00 0.00 77 1019.4
20260905141816 29 163 1.6 4.8 0.00 0.00 0.00 78 1019.5
20260905140636 29 0.0 0.0 0.00 0.00 0.00 79 1019.6
20260905135416 27 0.0 0.0 0.00 0.00 0.00 83 1019.5
20260905134216 27 0.0 0.0 0.00 0.00 0.00 85 1019.6
20260905133016 26 0.0 0.0 0.00 0.00 0.00 87 1019.5
20260905131817 26 0.0 0.0 0.00 0.00 0.00 88 1019.8
20260905130616 25 0.0 0.0 0.00 0.00 0.00 91 1020.0
20260905125436 24 0.0 0.0 0.00 0.00 0.00 93 1019.9
20260905124236 23 255 1.6 4.8 0.00 0.00 0.00 96 1019.8
20260905123016 23 217 0.0 3.2 0.00 0.00 0.00 97 1019.6
20260905121816 23 0.0 0.0 0.00 0.00 0.00 98 1019.6
20260905120616 22 0.0 0.0 0.00 0.00 0.00 97 1019.4
20260905115416 22 0.0 0.0 0.00 0.00 0.00 97 1019.3
20260905114216 22 0.0 0.0 0.00 0.00 0.00 97 1019.3
20260905113016 22 0.0 0.0 0.00 0.00 0.00 97 1019.3
20260905111816 22 0.0 0.0 0.00 0.00 0.00 97 1019.2
20260905110616 22 0.0 0.0 0.00 0.00 0.00 97 1019.1
20260905105416 22 0.0 0.0 0.00 0.00 0.00 96 1018.9
20260905104216 22 0.0 0.0 0.00 0.00 0.00 96 1018.7
20260905103016 22 0.0 0.0 0.00 0.00 0.00 97 1018.6
20260905101816 22 0.0 0.0 0.00 0.00 0.00 96 1018.7
20260905100616 22 0.0 0.0 0.00 0.00 0.00 97 1018.5
20260905095416 22 0.0 0.0 0.00 0.00 0.00 96 1018.5
20260905094216 22 0.0 0.0 0.00 0.00 0.00 96 1018.6